{"data":{"norad_id":59129,"epoch":"2026-05-24T23:32:24.880128Z","epoch_age_seconds":76403,"freshness":"FRESH","line1":"1 59129U 24043AH  26144.98084352  .00021586  00000+0  32845-3 0  9991","line2":"2 59129  97.5446 293.9334 0004325 286.0845  73.9932 15.54542702124312","mean_motion":15.54542702,"eccentricity":0.0004325,"inclination_deg":97.5446,"raan_deg":293.9334,"arg_perigee_deg":286.0845,"mean_anomaly_deg":73.9932,"bstar":0.00032845,"rev_number":12431,"period_min":92.631742965141,"perigee_km":400.54921374295,"apogee_km":406.41531440637,"semimajor_km":6781.6192640747,"source":"CELESTRAK","updated_at":"2026-05-25T13:38:01.196041Z"}}